Location: Leipzig
(51.3392°N, 12.3528°E)
Time: 21:51:05
(UTC+02:00)

ELECTRON R/B - Visible Passes

Search period start: 22 May 2018 00:00
Search period end: 01 June 2018 00:00
Orbit: 285 x 480 km, 82.9° (Epoch: 21 May)

Date Brightness Start Highest point End Pass type
(mag) Time Alt. Az. Time Alt. Az. Time Alt. Az.
22 May 5.7 22:06:03 10° NNW 22:08:21 37° W 22:10:38 10° SSW visible
25 May 7.6 22:23:36 10° WNW 22:24:10 11° W 22:24:46 10° WSW visible
27 May 7.5 22:02:29 10° WNW 22:03:37 12° W 22:04:45 10° WSW visible
